EUTELSAT 7 WEST A

Last updated on Nov. 22, 2019, 4:19 a.m. UTC

1 37816U 11051A   19325.15849439 -.00000062  00000-0  00000+0 0  9994
2 37816   0.0636  11.7973 0006892 197.5581 260.2821  1.00270140 29907
UTC
Height (km)
Latitude
Longitude
Inclination
Orbital Period
UTC large
Height (km)
Speed (km/s)
/
Latitude / Longitude
Inclination (degrees)
Orbital Period (minutes)
Azimuth
Elevation
Range (km)
Doppler Factor
iOS Compass Heading
iOS Angle

Next 30 passes for location: Hong Kong

Rise time Rise Azimuth (degrees) Set time Set Azimuth (degrees) Duration Max altitude (degrees)

No matching passes for this satellites